| time (UTC) | temp F | wind direction | speed knots | gust knots | rain 1hr in | rain 24hr in | rain mn in | humidity % | barometer mb |
| 20260506104555 | 76 | 193 | 7.0 | 11.3 | 0.00 | 0.00 | 0.00 | 49 | 1012.4 |
| 20260506103055 | 75 | 293 | 5.2 | 13.9 | 0.00 | 0.00 | 0.00 | 51 | 1012.5 |
| 20260506101556 | 75 | 191 | 5.2 | 13.0 | 0.00 | 0.00 | 0.00 | 52 | 1012.5 |
| 20260506100056 | 74 | 278 | 3.5 | 13.0 | 0.00 | 0.00 | 0.00 | 53 | 1012.7 |
| 20260506094554 | 74 | 221 | 5.2 | 12.2 | 0.00 | 0.00 | 0.00 | 52 | 1012.8 |
| 20260506093057 | 74 | 236 | 3.5 | 14.8 | 0.00 | 0.00 | 0.00 | 52 | 1012.8 |
| 20260506091556 | 73 | 250 | 4.3 | 13.9 | 0.00 | 0.00 | 0.00 | 53 | 1012.9 |
| 20260506090052 | 72 | 247 | 3.5 | 11.3 | 0.00 | 0.00 | 0.00 | 54 | 1012.9 |
| 20260506084555 | 72 | 282 | 4.3 | 10.4 | 0.00 | 0.00 | 0.00 | 54 | 1012.9 |
| 20260506083053 | 72 | 240 | 4.3 | 9.6 | 0.00 | 0.00 | 0.00 | 54 | 1013.0 |
| 20260506081554 | 71 | 221 | 5.2 | 11.3 | 0.00 | 0.00 | 0.00 | 54 | 1013.0 |
| 20260506073059 | 69 | 203 | 4.3 | 8.7 | 0.00 | 0.00 | 0.00 | 58 | 1013.0 |
| 20260506071556 | 68 | 214 | 2.6 | 7.8 | 0.00 | 0.00 | 0.00 | 61 | 1013.0 |
| 20260506070115 | 67 | 228 | 1.7 | 7.8 | 0.00 | 0.00 | 0.00 | 62 | 1013.1 |
| 20260506061601 | 63 | 197 | 2.6 | 6.1 | 0.00 | 0.00 | 0.00 | 65 | 1013.2 |
| 20260506044601 | 54 | 315 | 0.9 | 6.1 | 0.00 | 0.00 | 0.00 | 78 | 1013.2 |
| 20260506043100 | 51 | 123 | 1.7 | 3.5 | 0.00 | 0.00 | 0.00 | 82 | 1012.9 |
| 20260506041556 | 49 | 298 | 0.0 | 0.9 | 0.00 | 0.00 | 0.00 | 84 | 1013.0 |
| 20260506040059 | 48 | 0 | 0.0 | 0.0 | 0.00 | 0.00 | 0.00 | 85 | 1013.0 |
| 20260506034557 | 48 | 0 | 0.0 | 0.0 | 0.00 | 0.00 | 0.00 | 85 | 1012.9 |
| 20260506033054 | 48 | 0 | 0.0 | 0.9 | 0.00 | 0.00 | 0.00 | 83 | 1012.9 |
| 20260506031602 | 49 | 0 | 0.0 | 0.9 | 0.00 | 0.00 | 0.00 | 83 | 1012.9 |
| 20260506030112 | 49 | 283 | 0.0 | 0.9 | 0.00 | 0.00 | 0.00 | 84 | 1012.9 |
| 20260506024556 | 49 | 0 | 0.0 | 1.7 | 0.00 | 0.00 | 0.00 | 83 | 1012.9 |
| 20260506023056 | 49 | 338 | 0.0 | 0.9 | 0.00 | 0.00 | 0.00 | 83 | 1012.9 |
| 20260506021614 | 49 | 315 | 0.0 | 0.9 | 0.00 | 0.00 | 0.00 | 83 | 1012.8 |
| 20260506020057 | 50 | 315 | 0.0 | 0.9 | 0.00 | 0.00 | 0.00 | 82 | 1012.8 |
| 20260506014602 | 50 | 315 | 0.0 | 0.9 | 0.00 | 0.00 | 0.00 | 83 | 1012.7 |
| 20260506013058 | 50 | 0 | 0.0 | 0.9 | 0.00 | 0.00 | 0.00 | 83 | 1012.7 |
| 20260506011558 | 50 | 0 | 0.0 | 1.7 | 0.00 | 0.00 | 0.00 | 82 | 1012.7 |
| 20260506010059 | 51 | 0 | 0.0 | 0.9 | 0.00 | 0.00 | 0.00 | 80 | 1012.7 |
| 20260506004625 | 51 | 293 | 0.0 | 0.9 | 0.00 | 0.00 | 0.00 | 81 | 1012.6 |
| 20260506003101 | 51 | 0 | 0.0 | 0.0 | 0.00 | 0.00 | 0.00 | 80 | 1012.6 |
| 20260506001600 | 51 | 0 | 0.0 | 0.9 | 0.00 | 0.00 | 0.00 | 80 | 1012.7 |
| 20260506000057 | 52 | 0 | 0.0 | 0.9 | 0.00 | 0.00 | 0.00 | 79 | 1012.5 |
| 20260505234618 | 54 | 0 | 0.0 | 0.9 | 0.00 | 0.00 | 0.00 | 76 | 1012.5 |
| 20260505233055 | 54 | 0 | 0.0 | 0.0 | 0.00 | 0.00 | 0.00 | 75 | 1012.6 |
| 20260505231554 | 55 | 0 | 0.0 | 0.0 | 0.00 | 0.00 | 0.00 | 75 | 1012.7 |
| 20260505230056 | 55 | 285 | 0.0 | 1.7 | 0.00 | 0.00 | 0.00 | 76 | 1012.8 |
| 20260505224557 | 56 | 0 | 0.0 | 0.9 | 0.00 | 0.00 | 0.00 | 73 | 1012.8 |
| 20260505223102 | 56 | 333 | 0.0 | 0.9 | 0.00 | 0.00 | 0.00 | 73 | 1013.0 |
| 20260505221613 | 56 | 0 | 0.0 | 0.0 | 0.00 | 0.00 | 0.00 | 73 | 1013.0 |
| 20260505220138 | 56 | 0 | 0.0 | 0.0 | 0.00 | 0.00 | 0.00 | 72 | 1013.0 |
| 20260505214615 | 58 | 338 | 0.0 | 1.7 | 0.00 | 0.00 | 0.00 | 69 | 1012.9 |
| 20260505213057 | 61 | 311 | 0.0 | 4.3 | 0.00 | 0.00 | 0.00 | 65 | 1013.0 |
| 20260505211612 | 62 | 289 | 0.9 | 4.3 | 0.00 | 0.00 | 0.00 | 64 | 1013.1 |
| 20260505210055 | 62 | 239 | 1.7 | 7.0 | 0.00 | 0.00 | 0.00 | 65 | 1013.0 |
| 20260505204558 | 62 | 0 | 0.0 | 1.7 | 0.00 | 0.00 | 0.00 | 65 | 1012.9 |
| 20260505203055 | 62 | 0 | 0.0 | 4.3 | 0.00 | 0.00 | 0.00 | 63 | 1012.9 |
| 20260505201607 | 62 | 283 | 0.0 | 4.3 | 0.00 | 0.00 | 0.00 | 63 | 1012.9 |
| 20260505194602 | 63 | 295 | 1.7 | 5.2 | 0.00 | 0.00 | 0.00 | 62 | 1012.9 |
| 20260505193056 | 64 | 269 | 3.5 | 9.6 | 0.00 | 0.00 | 0.00 | 60 | 1012.9 |
| 20260505191555 | 65 | 296 | 3.5 | 7.8 | 0.00 | 0.00 | 0.00 | 59 | 1012.8 |
| 20260505190100 | 65 | 309 | 2.6 | 11.3 | 0.00 | 0.00 | 0.00 | 58 | 1012.8 |
| 20260505184553 | 66 | 297 | 5.2 | 13.9 | 0.00 | 0.00 | 0.00 | 57 | 1012.6 |
| 20260505183055 | 66 | 310 | 6.1 | 13.9 | 0.00 | 0.00 | 0.00 | 57 | 1012.4 |
| 20260505181554 | 67 | 328 | 7.0 | 14.8 | 0.00 | 0.00 | 0.00 | 55 | 1012.3 |
| 20260505174558 | 69 | 272 | 6.1 | 14.8 | 0.00 | 0.00 | 0.00 | 54 | 1012.0 |
| 20260505173053 | 70 | 287 | 6.1 | 17.4 | 0.00 | 0.00 | 0.00 | 53 | 1011.9 |
| 20260505171554 | 71 | 255 | 7.0 | 16.5 | 0.00 | 0.00 | 0.00 | 51 | 1011.9 |
| 20260505170053 | 72 | 294 | 6.1 | 14.8 | 0.00 | 0.00 | 0.00 | 49 | 1011.7 |
| 20260505164620 | 74 | 271 | 6.1 | 13.9 | 0.00 | 0.00 | 0.00 | 46 | 1011.6 |
| 20260505163056 | 77 | 281 | 4.3 | 7.0 | 0.00 | 0.00 | 0.00 | 39 | 1011.5 |
| 20260505161558 | 78 | 310 | 3.5 | 7.0 | 0.00 | 0.00 | 0.00 | 36 | 1011.4 |
| 20260505153057 | 78 | 233 | 1.7 | 7.8 | 0.00 | 0.00 | 0.00 | 34 | 1011.5 |
| 20260505151556 | 78 | 0 | 1.7 | 8.7 | 0.00 | 0.00 | 0.00 | 33 | 1011.6 |
| 20260505124600 | 81 | 205 | 4.3 | 12.2 | 0.00 | 0.00 | 0.00 | 31 | 1012.6 |
| 20260505123100 | 81 | 153 | 3.5 | 9.6 | 0.00 | 0.00 | 0.00 | 33 | 1012.7 |
| 20260505121556 | 80 | 251 | 3.5 | 13.0 | 0.00 | 0.00 | 0.00 | 32 | 1013.0 |
| 20260505120101 | 80 | 192 | 4.3 | 7.8 | 0.00 | 0.00 | 0.00 | 33 | 1013.0 |
| 20260505114553 | 78 | 211 | 4.3 | 9.6 | 0.00 | 0.00 | 0.00 | 36 | 1013.3 |
| 20260505113055 | 79 | 204 | 3.5 | 9.6 | 0.00 | 0.00 | 0.00 | 35 | 1013.3 |
| 20260505111554 | 80 | 262 | 3.5 | 7.8 | 0.00 | 0.00 | 0.00 | 35 | 1013.6 |
| 20260505110106 | 79 | 225 | 2.6 | 13.0 | 0.00 | 0.00 | 0.00 | 38 | 1013.6 |